Airfield :
LOGIN :

Register | Disclaimer

   EN    FR    IT 

 










Legend :    VFR   Marginal VFR   IFR   Intensive IFR   Very Intensive IFR
Visi :
Ceiling :
>= 8 km
>= 3000ft
5 to 8 km
1000 to 3000 ft
1500m to 5 km
500 to 1000 ft
800 to 1500m
200 to 500 ft
< 800m
< 200 ft
Symbols :   Thunderstorms  Fog  Heavy snow  Heavy precipitations  Wind > 20 kt
SIGMETs :     Misc.  Thunderstorms  Icing  Turbulence  Mountain Waves  Volcanic Ashes







- Airport Elevation : 1830 ft


EBLB - Butgenbach Elsenborn

CURRENT METAR :
  • 241625Z AUTO 32008KT 9999 FEW058/// SCT230/// 17/07 Q1015 BLU

EXPIRED METARs :
  • 241555Z AUTO 31007KT 9999 BKN054/// 19/05 Q1015 BLU
  • 241525Z AUTO 31007KT 9999 BKN055/// 19/05 Q1015 BLU
  • 241455Z AUTO 31006KT 9999 BKN060/// 19/07 Q1016 BLU
  • 241425Z AUTO 32007KT 9999 OVC056/// 18/05 Q1016 BLU
  • 241355Z AUTO 33007KT 9999 OVC058/// 18/06 Q1016 BLU

Expired Forecast.
No reported NOTAMs for that airfield.



MET'MAP, your aeronautical weather chart ! - Copyright ORBIFLY December 2007 - Disclaimer

ORBIFLY MET'MAP TEAM :

Programming & Development : Alexandra Zaïnal
Concept & Development : Baudouin d'Aumeries
Co-Development & Prog : Marc-Olivier Méhu
Technical & hardware support : Manuel Goepfert

Contact : metmap@orbifly.com




SOURCES & CREDITS :

   NOAA